Torna al catalogo

GALILEO 33 (138)

AttivoNavigazioneMEO
NORAD 67160·PAYLOAD·🇪🇺 EU

Lanciato Dec 17, 2025 da Guiana Space Centre

Loading…

Prossimi Passaggi (prossime 24 ore)

TLE

AggiornatoSource: CelesTrak SupGP

Epoca: Sep 14, 2026, 23:59 UTC

1 67160C 25302A   26257.99979167  .00000000  00000+0  00000+0 0  2576
2 67160  54.3932  99.5706 0002984 142.5841  54.1690  1.70474504    10

Traccia GALILEO 33 (138) in tempo reale con AllMySat

Download on the App Store